Regional Weather Roundup
Issued by NWS

Home | Current Version | Previous Version | Graphics & Text | Print | Product List | Glossary On
Versions: 1 2 3 4 5 6 7 8 9 10 11 12 13 14 15 16 17 18 19 20 21 22 23 24 25 26 27 28 29 30 31 32 33 34 35 36 37 38 39 40 41 42 43 44 45 46 47 48 49 50
000
ASUS43 KMKX 011559
RWRWI

WISCONSIN REGIONAL WEATHER ROUNDUP
NATIONAL WEATHER SERVICE MILWAUKEE/SULLIVAN WI
1000 AM CST SUN FEB 01 2015

NOTE: "FAIR" INDICATES FEW OR NO CLOUDS BELOW 12,000 FEET WITH NO
SIGNIFICANT WEATHER AND/OR OBSTRUCTIONS TO VISIBILITY.

WIZ001-002-006>008-014>016-023>028-011700-
NORTHWEST WISCONSIN

CITY           SKY/WX    TMP DP  RH WIND       PRES   REMARKS
SUPERIOR ARPT  PTSUNNY    8   2  74 NE12G18   30.40R WCI  -7
ASHLAND        LGT SNOW  10   5  80 N20       30.35F VSB 1   WCI  -9
HAYWARD        CLOUDY     9   0  67 N10       30.28F WCI  -5
SIREN          CLOUDY    11   1  64 NE14G21   30.30F WCI  -4
CUMBERLAND     CLOUDY    10   0  61 NE14G20   30.24S WCI  -5
RICE LAKE      CLOUDY    10   1  66 NE13G18   30.27F WCI  -5
CHETEK         CLOUDY    10   0  65 MISG      30.24F
LADYSMITH      CLOUDY     9   1  68 NE14      30.25F WCI  -7
EAU CLAIRE     NOT AVBL
MENOMONIE      CLOUDY    12   2  65 NE15      30.23S WCI  -4
NEW RICHMOND   CLOUDY    11   2  67 NE14G23   30.24F WCI  -5
OSCEOLA        CLOUDY    13   1  59 NE13G18   30.30S WCI  -2
$$

WIZ003>005-009-010-017-018-011700-
NORTH CENTRAL WISCONSIN

CITY           SKY/WX    TMP DP  RH WIND       PRES   REMARKS
MANITOWISH WTR CLOUDY     5  -2  74 NE12      30.23F WCI -11
ARBOR VITAE    CLOUDY     8   1  75 NE8       30.23S WCI  -5
WOODRUFF       CLOUDY     8   1  75 NE8       30.23S WCI  -5
RHINELANDER    CLOUDY     7  -1  70 NE12G20   30.19F WCI  -8
EAGLE RIVER    CLOUDY     6  -2  70 NE12G21   30.22F WCI  -9
LAND O LAKES   CLOUDY     6   1  78 NE7       30.24F HAZE    WCI  -6
PHILLIPS       PTSUNNY    6  -1  73 NE14      30.23S WCI -11
TOMAHAWK       CLOUDY     8   0  69 NE8G18    30.21S WCI  -5
MEDFORD        CLOUDY     8   1  71 NE14G21   30.17S WCI  -8
MERRILL        CLOUDY     9   2  72 NE10G16   30.20S WCI  -5
$$

WIZ029-030-035-036-043>047-011700-
CENTRAL WISCONSIN

CITY           SKY/WX    TMP DP  RH WIND       PRES   REMARKS
WAUSAU         CLOUDY    10   2  69 NE12G18   30.18R WCI  -5
MOSINEE        NOT AVBL
MARSHFIELD     CLOUDY    12   3  67 NE15      30.16S WCI  -4
STEVENS POINT  CLOUDY    10   3  74 NE12G23   30.17F WCI  -5
WAUPACA        LGT SNOW  14   8  78 NE12G17   30.19S WCI   1
WAUTOMA        LGT SNOW  12   9  85 NE16      30.15F VSB 3/4 WCI  -4
WISC RAPIDS    LGT SNOW  12   5  73 NE12G24   30.17S VSB 1   WCI  -2
CAMP DOUGLAS   NOT AVBL
$$

WIZ011>013-019>022-031-037>040-048>050-011700-
NORTHEAST WISCONSIN

CITY           SKY/WX    TMP DP  RH WIND       PRES   REMARKS
ANTIGO         CLOUDY     8   2  79 NE16      30.18S WCI -10
SHAWANO        CLOUDY    13   4  66 NE18      30.24R WCI  -4
OCONTO         CLOUDY    10   2  72 NE15G25   30.28R WCI  -7
STURGEON BAY   CLOUDY    10   5  79 NE14      30.25S WCI  -5
GREEN BAY      LGT SNOW  11   6  81 NE29G39   30.22S WCI -11
MANITOWOC      LGT SNOW  18  16  93 NE14G21   30.17F VSB 1   WCI   4
APPLETON       LGT SNOW  12   7  79 NE17G25   30.17S VSB 1   WCI  -5
CLINTONVILLE   CLOUDY    12   3  67 NE14G22   30.22R WCI  -3
OSHKOSH        SNOW      12   8  84 NE24G33   30.13F VSB 1/2 WCI  -8
$$

WIZ032>034-041-042-053>061-011700-
SOUTHWEST WISCONSIN

CITY           SKY/WX    TMP DP  RH WIND       PRES   REMARKS
LA CROSSE      LGT SNOW  16   9  74 N13       30.13F WCI   2
SPARTA         LGT SNOW  14  10  82 NE15      30.14S WCI  -1
VIROQUA        CLOUDY    13  10  85 NE22G28   30.03F WCI  -5
BOSCOBEL       LGT SNOW  18  12  77 NE10G24   30.03F VSB 3/4 WCI   6
PRAIRIE DU CHI MIX PCPN  18  11  77 N9G16     30.02F WCI   6
PLATTEVILLE    CLOUDY    19  16  88 NE30G39   29.92F VSB 3/4 WCI  -1
$$

WIZ056-057-062-063-064-067-068-011700-
SOUTH CENTRAL WISCONSIN

CITY           SKY/WX    TMP DP  RH WIND       PRES   REMARKS
REEDSBURG      LGT SNOW  14  10  85 NE15G21   30.07F WCI  -1
BARABOO/DELLS  LGT SNOW  13  10  85 NE15G24   30.07S VSB 1   WCI  -3
LONE ROCK      LGT SNOW  17  11  77 NE15G22   30.05F WCI   2
MINERAL POINT  LGT SNOW  19  14  79 NE21G29   29.94F WCI   3
MADISON        LGT SNOW  16  12  84 NE21G29   30.02F VSB 3/4 WCI  -1
MIDDLETON      CLOUDY    18  13  82 NE23G29   30.02F WCI   0
WATERTOWN      LGT SNOW  21  18  90 NE16      30.02F WCI   7
MONROE         LGT SNOW  19  18  93 NE22G30   29.93F WCI   3
JANESVILLE     CLOUDY    25  21  86 NE21G30   29.93F VSB 1   WCI  10
$$

WIZ051-052-058>065-066-070>072-011700-
SOUTHEAST WISCONSIN

CITY           SKY/WX    TMP DP  RH WIND       PRES   REMARKS
MILWAUKEE      SNOW      23  19  85 NE29G37   30.03F VSB 1/4 WCI   6
WAUKESHA       NOT AVBL
MILWAUKEE/TIMM LGT SNOW  21  19  93 NE12G24   30.05F VSB 3/4 WCI   9
RACINE         SNOW      24  20  84 NE24G31   30.02F VSB 1/4 WCI   8
BURLINGTON     LGT SNOW  22  20  92 NE16G23   29.98F WCI   8
KENOSHA        SNOW      24  21  88 NE26G36   29.98F VSB 1/4 WCI   8
FOND DU LAC    LGT SNOW  15  10  80 N23       30.10F VSB 3/4 WCI  -3
SHEBOYGAN      SNOW      19  14  81 NE22      30.12F VSB 1/2 WCI   2
WEST BEND      LGT SNOW  19  16  86 NE15G24   30.07F WCI   5
JUNEAU         LGT SNOW  17  14  88 N15G24    30.06F WCI   2
$$

LSZ147-162-011700-
LAKE SUPERIOR

STATION/POSITION TIME  TEMP    WIND        PRES    WAVE
                       AIR SEA DIR/SP/G            HT/PER
                 (UTC) (F)     (DEG/KT/KT) (MB)    (FT/S)
DEVILS ISLAND    1500    9      30/ 18/ 20 1031.4R
PORT WING        1500   12      70/ 12/ 19 1029.5R
SAXON HARBOR     1500   11      CALM  /  1 1028.1R
$$

LMZ867-665-643>646-011700-
LAKE MICHIGAN

STATION/POSITION TIME  TEMP    WIND        PRES    WAVE
                       AIR SEA DIR/SP/G            HT/PER
                 (UTC) (F)     (DEG/KT/KT) (MB)    (FT/S)
NORTHPORT PIER   1530   11      40/ 19/ 23 1025.7F
SISTER BAY       1413    9      20/ 14/ 20   N/A
KEWAUNEE LAKESHO 1500   18      50/ 21/ 27 1022.1R
SHEBOYGAN LAKESH 1500   21      50/ 23/ 27 1021.7S
PORT WASHINGTON  1500   24      60/ 21     1020.0F
MILWAUKEE LAKESH 1500   24      50/ 27/ 30   N/A
KENOSHA   LAKESH 1500   26      50/ 27/ 32 1015.9S
$$

TC  - TEMPERATURE IN CELSIUS
VSB - VISIBILITY IN STATUTE MILES
WCI - WIND CHILL INDEX
HX  - HEAT INDEX




USA.gov is the U.S. government's official web portal to all federal, state and local government web resources and services.